x

Burns Harbor, In (bhri3) Weather Station

1:40am - Fri 24th Nov 2017 All times are CST. -6 hours from GMT.

  • Wind
    10mph, 14mph gusts
  • Air Temp 34°f
  • Sea Pressure 1012.2mb
  • Burns Harbor, In
  • Burns Harbor, In

More Historic Weather Station data

Upgrade to MSW Pro to gain access to the past 30 days of data for over 8000 Wavebouys and Weather Stations around the globe.

Join

Comparision Forecast

View Surf forecast
   
Fri 11/24 1:40am 10 14 mph 1012.2mb 34f
1:30am 10 14 mph 1012.2mb 34f
1:20am 11 14 mph 1014.2mb 35f
1:15am 11 15 mph 1012.2mb 35f
1:10am 11 15 mph 1012.2mb 35f
1:00am 11 14 mph 1012.5mb 35f
12:40am 10 14 mph 1012.5mb 35f
12:30am 11 14 mph 1012.9mb 35f
12:20am 11 14 mph 1012.9mb 36f
12:15am 11 17 mph 1012.9mb 36f
12:10am 11 14 mph 1012.9mb 35f
12:00am 10 14 mph 1012.9mb 35f
Thu 11/23 11:40pm 11 14 mph 1013.2mb 36f
11:30pm 10 11 mph 1013.2mb 36f
11:20pm 10 13 mph 1013.5mb 36f
11:14pm 10 15 mph 1013.2mb 37f
11:10pm 9 15 mph 1013.2mb 37f
11:00pm 9 14 mph 1013.5mb 37f
10:40pm 11 13 mph 1013.5mb 37f
10:30pm 9 13 mph 1013.9mb 37f
10:20pm 9 13 mph 1014.2mb 37f
10:14pm 9 14 mph 1014.2mb 37f
10:10pm 9 13 mph 1014.2mb 37f
10:00pm 10 14 mph 1014.2mb 38f
9:40pm 10 13 mph 1014.2mb 38f
9:30pm 8 13 mph 1014.2mb 38f
9:20pm 7 11 mph 1014.2mb 38f
9:13pm 9 11 mph 1014.2mb 38f
9:10pm 9 10 mph 1014.2mb 38f
9:00pm 8 10 mph 1014.2mb 38f
8:40pm 9 11 mph 1013.9mb 39f
8:30pm 9 11 mph 1013.9mb 39f
8:20pm 9 11 mph 1014.2mb 39f
8:13pm 8
mph
- -
8:10pm 8 10 mph 1014.6mb 40f
8:00pm 7 10 mph 1014.2mb 39f
7:40pm 7 10 mph 1014.2mb 40f
7:30pm 7 9 mph 1014.2mb 40f
7:20pm 7 10 mph 1014.2mb 40f
7:13pm 8 10 mph 1014.2mb 41f
7:10pm 7 9 mph 1014.2mb 41f
7:00pm 8 9 mph 1014.6mb 41f
6:40pm 7 9 mph 1014.9mb 42f
6:30pm 8 10 mph 1014.6mb 43f
6:20pm 7 9 mph 1014.9mb 43f
6:12pm 7 10 mph 1014.9mb 43f
6:10pm 8 10 mph 1014.9mb 43f
6:00pm 7 9 mph 1014.6mb 43f
5:40pm 6 9 mph 1014.9mb 44f
5:30pm 7 9 mph 1014.6mb 44f
5:20pm 7 10 mph 1014.6mb 45f
5:12pm 8 15 mph 1014.6mb 45f
5:10pm 7 9 mph 1014.2mb 45f
5:00pm 7 11 mph 1014.2mb 45f
4:11pm 6 18 mph 1013.9mb 46f
3:40pm 9 14 mph 1013.9mb 46f
3:30pm 11 18 mph 1013.9mb 46f
3:20pm 8 18 mph 1013.9mb 46f
3:11pm 14 20 mph 1013.9mb 46f
3:10pm 14 18 mph 1013.9mb 46f
3:00pm 11 18 mph 1013.9mb 46f
2:40pm 11 17 mph 1013.9mb 46f
2:30pm 13 20 mph 1013.9mb 46f
2:20pm 11 20 mph 1013.9mb 46f
2:10pm 15 21 mph 1013.9mb 45f
2:00pm 14 21 mph 1013.9mb 45f
1:40pm 11 17 mph 1013.9mb 45f
1:30pm 14 17 mph 1014.2mb 45f
1:20pm 13 17 mph 1013.9mb 45f
1:10pm 15 22 mph 1014.6mb 45f
1:00pm 9 16 mph 1014.6mb 45f
12:40pm 13 18 mph 1014.6mb 44f
12:30pm 14 22 mph 1014.2mb 44f
12:20pm 15 21 mph 1014.6mb 44f
12:10pm 15 20 mph 1014.9mb 43f
12:00pm 13 18 mph 1015.2mb 43f
11:40am 15 20 mph 1015.6mb 42f
11:30am 15 23 mph 1015.9mb 42f
11:20am 16 20 mph 1015.6mb 41f
11:10am 15 18 mph 1015.9mb 41f
11:09am 13 22 mph 1015.9mb 40f
11:00am 16 20 mph 1016.3mb 40f
10:40am 15 20 mph 1016.6mb 40f
10:30am 14 17 mph 1016.9mb 39f
10:20am 15 20 mph 1016.9mb 38f
10:10am 15 20 mph 1017.3mb 38f
10:09am 15 20 mph 1017.3mb 38f
10:00am 15 20 mph 1017.3mb 37f
9:40am 15 17 mph 1017.6mb 36f
9:30am 13 17 mph 1017.9mb 36f
9:20am 14 16 mph 1017.9mb 36f
9:10am 10 15 mph 1017.9mb 35f
9:08am 13 17 mph 1018.3mb 35f
9:00am 11 16 mph 1018.3mb 35f
8:40am 13 17 mph 1018.3mb 34f
8:30am 13 17 mph 1018.6mb 34f
8:20am 13 17 mph 1018.6mb 34f
8:10am 11 15 mph 1018.6mb 34f
8:08am 10 16 mph 1018.6mb 34f
8:00am 10 15 mph 1018.6mb 34f
7:40am 9 15 mph 1018.6mb 33f
7:30am 10 16 mph 1018.6mb 33f
7:20am 13 15 mph 1018.6mb 33f
7:10am 10 16 mph 1018.3mb 33f
7:08am 10 16 mph 1018.6mb 33f
7:00am 10 15 mph 1018.6mb 33f
6:40am 10 13 mph 1018.6mb 34f
6:30am 8 13 mph 1018.6mb 33f
6:20am 9 15 mph 1019mb 33f
6:10am 9 14 mph 1019mb 33f
6:07am 10 17 mph 1019mb 33f
6:00am 10 17 mph 1019mb 33f
5:40am 11 15 mph 1018.6mb 33f
5:30am 11 16 mph 1018.6mb 33f
5:20am 13 16 mph 1019mb 33f
5:10am 11 16 mph 1018.6mb 33f
5:07am 13 17 mph 1018.6mb 33f
5:00am 13 17 mph 1018.6mb 32f
4:40am 11 15 mph 1019mb 33f
4:30am 10 14 mph 1019.3mb 32f
4:20am 14 17 mph 1019.3mb 32f
4:10am 13 14 mph 1019.6mb 32f
4:06am 11 15 mph 1019.6mb 32f
4:00am 11 14 mph 1019.6mb 32f
3:40am 11 15 mph 1020.3mb 32f
3:30am 10 14 mph 1020.3mb 32f
3:20am 10 14 mph 1020.7mb 32f
3:10am 10 14 mph 1020.7mb 32f
3:06am 10 14 mph 1021mb 32f
3:00am 9 14 mph 1021mb 32f
2:40am 9 11 mph 1021.3mb 32f
2:30am 9 14 mph 1021.7mb 32f
2:20am 8 11 mph 1021.7mb 32f
2:10am 8 11 mph 1022mb 32f
2:00am 8 10 mph 1022mb 32f
1:40am 8 10 mph 1022mb 32f
1:30am 7 11 mph 1022.4mb 32f
1:20am 9 11 mph 1022mb 32f
1:10am 9 13 mph 1022mb 32f
1:00am 8 13 mph 1022.4mb 32f
12:05am 9 14 mph 1022.7mb 31f
Wed 11/22 11:40pm 9 11 mph 1022.7mb 31f
11:30pm 8 10 mph 1023mb 31f
11:20pm 9 11 mph 1023mb 31f
11:10pm 8 11 mph 1023mb 31f
11:04pm 8 11 mph 1023mb 31f
11:00pm 9 11 mph 1023mb 31f
10:40pm 8 10 mph 1023.4mb 31f
10:30pm 10 11 mph 1023mb 32f
10:20pm 8 10 mph 1023.4mb 32f
10:10pm 8 11 mph 1023.4mb 32f
10:04pm 7 11 mph 1023.4mb 31f
10:00pm 7 9 mph 1023.4mb 31f
9:40pm 8 10 mph 1023.4mb 31f
9:30pm 8 10 mph 1023.4mb 32f
9:20pm 8 10 mph 1023.7mb 32f
9:10pm 7 11 mph 1024mb 32f
9:04pm 8 10 mph 1024mb 32f
9:00pm 6 10 mph 1024mb 32f
8:40pm 8 9 mph 1023.7mb 32f
8:30pm 8 10 mph 1023.7mb 32f
8:20pm 8 9 mph 1023.4mb 32f
8:10pm 7 9 mph 1024mb 32f
8:03pm 5 11 mph 1024mb 32f
8:00pm 6 9 mph 1024mb 32f
7:40pm 6 11 mph 1024.7mb 33f
7:30pm 6 9 mph 1024.7mb 32f
7:20pm 6 10 mph 1025.1mb 33f
7:10pm 8 10 mph 1024.7mb 33f
7:03pm 8 11 mph 1025.1mb 33f
7:00pm 8 11 mph 1025.1mb 33f
6:40pm 7 11 mph 1025.1mb 33f
6:30pm 8 10 mph 1025.1mb 33f
6:20pm 7 10 mph 1025.1mb 33f
6:10pm 9 11 mph 1024.7mb 33f
6:02pm 10 11 mph 1024.7mb 33f
6:00pm 9 11 mph 1024.7mb 33f
5:40pm 7 9 mph 1024.7mb 34f
5:30pm 7 9 mph 1025.1mb 34f
5:20pm 7 9 mph 1025.1mb 34f
5:10pm 6 9 mph 1025.1mb 34f
5:02pm 7 9 mph 1025.1mb 35f
5:00pm 7 9 mph 1025.1mb 35f
4:40pm 8 9 mph 1025.1mb 35f
4:30pm 7 9 mph 1025.1mb 35f
4:20pm 7 8 mph 1025.1mb 35f
4:10pm 3 7 mph 1025.1mb 35f
4:02pm 5 9 mph 1025.4mb 34f
4:00pm 5 9 mph 1025.4mb 34f
3:40pm 6 9 mph 1025.4mb 35f
3:30pm 7 9 mph 1025.7mb 35f
3:20pm 6 9 mph 1025.7mb 35f
3:10pm 6 9 mph 1025.4mb 35f
3:01pm 3 9 mph 1025.4mb 34f
3:00pm 3 7 mph 1025.4mb 34f
2:40pm 5 7 mph 1025.4mb 34f
2:30pm 5 7 mph 1025.4mb 34f
2:20pm 3 8 mph 1025.4mb 34f
2:10pm 6 9 mph 1025.7mb 33f
2:01pm 7 13 mph 1025.7mb 33f
2:00pm 7 9 mph 1025.7mb 33f
1:40pm 8 13 mph 1026.1mb 33f
1:30pm 8 13 mph 1026.4mb 33f
1:20pm 8 11 mph 1026.4mb 33f
1:10pm 7 11 mph 1026.4mb 33f
1:00pm 7 13 mph 1026.4mb 33f
12:40pm 8 11 mph 1026.8mb 32f
12:30pm 8 11 mph 1027.1mb 32f
12:20pm 7 11 mph 1027.1mb 32f
12:10pm 7 10 mph 1027.4mb 32f
12:00pm 7 11 mph 1027.4mb 32f
11:40am 9 11 mph 1027.8mb 31f
11:30am 7 10 mph 1027.8mb 31f
11:20am 8 11 mph 1027.8mb 31f
11:10am 8 11 mph 1027.8mb 31f
11:00am 10 20 mph 1028.1mb 31f
10:40am 10 15 mph 1028.1mb 31f
10:30am 11 18 mph 1028.1mb 31f
10:20am 13 17 mph 1028.1mb 31f
10:10am 14 18 mph 1028.1mb 31f
10:00am 16 18 mph 1028.1mb 31f
9:47am 15 21 mph 1028.1mb 31f
9:40am 16 21 mph 1027.8mb 31f
9:30am 16 20 mph 1027.8mb 31f
9:20am 17 21 mph 1027.8mb 31f
9:10am 13 17 mph 1027.8mb 32f
9:00am 9 15 mph 1027.4mb 32f
8:47am 9 20 mph 1027.4mb 32f
7:46am 7 17 mph 1026.8mb 32f
7:40am 8 14 mph 1026.8mb 32f
7:30am 9 15 mph 1026.4mb 32f
7:20am 10 13 mph 1026.8mb 32f
7:10am 8 17 mph 1026.8mb 32f
7:00am 9 17 mph 1026.8mb 32f
6:46am 13 22 mph 1026.8mb 32f
6:40am 13 17 mph 1026.8mb 32f
6:30am 15 21 mph 1026.4mb 32f
6:20am 14 22 mph 1026.4mb 32f
6:10am 15 20 mph 1026.1mb 32f
6:00am 17 22 mph 1026.1mb 32f
5:40am 14 21 mph 1026.1mb 32f
5:30am 17 22 mph 1025.7mb 32f
5:20am 11 23 mph 1025.7mb 32f
5:10am 18 24 mph 1025.7mb 32f
5:00am 14 21 mph 1025.7mb 32f
4:45am 11 21 mph 1025.7mb 32f
4:40am 16 21 mph 1025.4mb 33f
4:30am 14 21 mph 1025.4mb 33f
4:20am 15 18 mph 1025.1mb 33f
4:10am 16 20 mph 1025.1mb 33f
4:00am 9 18 mph 1025.1mb 33f
3:45am 15 23 mph 1024.7mb 33f
3:40am 16 20 mph 1024.4mb 33f
3:30am 15 20 mph 1024.7mb 33f
3:20am 18 23 mph 1024.4mb 33f
3:10am 17 20 mph 1024mb 33f
3:00am 17 22 mph 1024.4mb 33f
2:44am 15 23 mph 1024.4mb 33f
2:40am 11 21 mph 1024.4mb 33f
2:30am 13 23 mph 1024mb 33f
2:20am 16 23 mph 1023.4mb 33f
2:10am 17 21 mph 1023.7mb 33f
2:00am 15 22 mph 1023.4mb 33f
Tue 11/21 9:40pm 15 25 mph 1021.3mb 34f
9:30pm 17 24 mph 1021mb 34f
9:20pm 21 25 mph 1021mb 34f
9:10pm 16 25 mph 1021mb 34f
9:00pm 17 24 mph 1021mb 34f
8:42pm 16
mph
1020.7mb 34f
8:40pm 18 25 mph 1020.7mb 34f
8:30pm 23 28 mph 1020.7mb 34f
8:20pm 18 29 mph 1020.3mb 35f
8:10pm 22 30 mph 1019.6mb 35f
8:09pm 21 30 mph 1020mb 35f
8:00pm 23 31 mph 1020mb 35f
7:41pm 16
mph
1020mb 36f
7:40pm 16 23 mph 1020mb 36f
7:30pm 20 26 mph 1019.6mb 36f
7:20pm 17 24 mph 1019.6mb 36f
7:10pm 21 31 mph 1019.6mb 36f
7:09pm 21 31 mph 1019.3mb 36f
7:00pm 18 28 mph 1019.6mb 36f
6:41pm 18 28 mph 1019.6mb 36f
6:40pm 18 26 mph 1019.6mb 36f
6:30pm 20 28 mph 1019.6mb 36f
6:20pm 20 26 mph 1019.3mb 36f
6:10pm 20 26 mph 1019mb 36f
6:00pm 21 28 mph 1019mb 36f
5:40pm 22 23 mph 1018.6mb 36f
5:30pm 23 30 mph 1018.3mb 36f
5:20pm 22 29 mph 1017.9mb 36f
5:10pm 23 29 mph 1017.6mb 36f
5:00pm 21 29 mph 1017.3mb 36f
3:40pm 26
mph
1014.9mb 39f
3:30pm 18 22 mph 1014.6mb 41f
3:20pm 20 24 mph 1014.2mb 40f
3:10pm 20 23 mph 1014.2mb 40f
3:00pm 17 24 mph 1013.9mb 41f
2:40pm 16 20 mph 1013.2mb 41f
2:30pm 15 22 mph 1012.9mb 41f
2:20pm 15 22 mph 1012.9mb 41f
2:10pm 17 20 mph 1012.9mb 42f
2:00pm 11 15 mph 1012.5mb 41f
1:40pm 15
mph
1012.2mb 40f
1:30pm 20 30 mph 1012.2mb 41f
1:24pm 16 29 mph 1011.9mb 42f
1:20pm 13 21 mph 1011.9mb 42f
1:10pm 18 22 mph 1012.2mb 42f
1:00pm 18 21 mph 1011.9mb 42f
12:40pm 11 22 mph 1011.2mb 42f
12:30pm 14 17 mph 1010.8mb 42f
12:20pm 13 15 mph 1010.5mb 43f
12:10pm 9 14 mph 1010.2mb 43f
12:00pm 13 21 mph 1010.2mb 42f
11:40am 16 23 mph 1010.2mb 42f
11:30am 18 23 mph 1010.2mb 43f
11:20am 18 22 mph 1010.5mb 43f
11:10am 14 23 mph 1010.5mb 43f
11:00am 20
mph
1010.5mb 43f
10:40am 17 22 mph 1010.2mb 45f
10:30am 17 23 mph 1010.2mb 45f
10:20am 18 21 mph 1010.2mb 45f
10:10am 20 23 mph 1010.2mb 45f
10:00am 16 22 mph 1009.8mb 45f
9:40am 16 22 mph 1008.8mb 44f
9:30am 18 25 mph 1009.1mb 44f
9:20am 16 25 mph 1008.8mb 44f
9:10am 17 28 mph 1008.5mb 44f
9:00am 20 26 mph 1008.5mb 43f
8:47am 22 30 mph 1007.8mb 43f
8:40am 17 26 mph 1008.1mb 43f
8:30am 21 29 mph 1007.8mb 43f
8:20am 21 28 mph 1007.8mb 43f
8:10am 21 28 mph 1007.5mb 44f
8:00am 20 28 mph 1007.1mb 43f
7:40am 21 28 mph 1007.5mb 43f
7:30am 20 28 mph 1007.1mb 43f
7:20am 18 26 mph 1006.8mb 43f
7:10am 21 28 mph 1006.8mb 42f
7:00am 20 25 mph 1006.8mb 42f
6:40am 23 29 mph 1006.1mb 42f
6:30am 22 29 mph 1006.1mb 42f
6:20am 23 30 mph 1006.1mb 43f
6:10am 21 28 mph 1006.1mb 43f
6:00am 24 30 mph 1006.1mb 43f
5:54am 20 30 mph 1005.8mb 43f
5:40am 22 28 mph 1006.1mb 43f
5:30am 21 30 mph 1006.4mb 44f
5:20am 23 30 mph 1006.4mb 44f
5:10am 23 33 mph 1006.4mb 44f
5:00am 21 33 mph 1006.4mb 44f
4:40am 26 36 mph 1006.1mb 44f
4:30am 21 33 mph 1006.4mb 44f
4:29am 22
mph
1006.4mb 44f
4:20am 20 30 mph 1006.1mb 44f
4:10am 23 31 mph 1006.1mb 44f
4:00am 24 34 mph 1006.1mb 44f
3:40am 24 32 mph 1006.1mb 44f
3:30am 22 34 mph 1006.1mb 44f
3:29am 26
mph
1006.1mb 44f
3:20am 24 32 mph 1006.1mb 44f
3:10am 28 34 mph 1005.8mb 44f
3:00am 24 36 mph 1006.1mb 44f
2:40am 25 33 mph 1006.1mb 44f
2:30am 28 34 mph 1006.1mb 44f
2:28am 26
mph
1005.8mb 44f
2:20am 25 36 mph 1006.1mb 44f
2:10am 29 34 mph 1006.1mb 44f
2:00am 26 31 mph 1006.1mb 44f
1:40am 24 32 mph 1006.4mb 44f
1:30am 26 36 mph 1006.4mb 44f
1:28am 26
mph
1006.1mb 44f
1:20am 26 34 mph 1006.4mb 44f
1:10am 25 33 mph 1006.4mb 44f
1:00am 29 36 mph 1006.4mb 44f
12:27am 28
mph
1006.8mb 45f
Mon 11/20 11:40pm 29 37 mph 1007.1mb 46f
11:30pm 26 36 mph 1007.1mb 46f
11:27pm 26
mph
1007.1mb 46f
11:20pm 28 41 mph 1007.1mb 46f
11:14pm 28 41 mph 1006.8mb 46f
11:10pm 26 37 mph 1007.1mb 46f
11:00pm 25 33 mph 1007.8mb 45f
10:40pm 26 34 mph 1007.8mb 45f
10:35pm 24 29 mph 1007.8mb 45f
10:30pm 24 34 mph 1007.8mb 45f
10:20pm 25 36 mph 1008.1mb 45f
10:10pm 28 34 mph 1008.1mb 45f
10:00pm 26 34 mph 1008.5mb 45f
9:40pm 29 36 mph 1008.5mb 45f
9:35pm 28 29 mph 1008.5mb 45f
9:30pm 25 36 mph 1008.5mb 44f
9:26pm 24
mph
1008.5mb 45f
9:20pm 28 34 mph 1008.5mb 44f
9:10pm 23 33 mph 1008.8mb 44f
9:00pm 23 31 mph 1008.8mb 44f
8:40pm 28 34 mph 1008.8mb 44f
8:34pm 24 31 mph 1008.8mb 45f
8:30pm 23 34 mph 1008.8mb 45f
8:20pm 25 34 mph 1008.5mb 45f
8:10pm 28 37 mph 1008.8mb 45f
8:00pm 26 34 mph 1008.8mb 45f
7:40pm 30 38 mph 1008.5mb 46f
7:30pm 29 37 mph 1008.8mb 46f
7:20pm 30 37 mph 1008.5mb 46f
7:10pm 26 38 mph 1008.1mb 46f
7:00pm 23 32 mph 1008.8mb 46f
6:40pm 25 34 mph 1008.8mb 46f
6:31pm 26 30 mph 1008.5mb 46f
6:30pm 26 40 mph 1008.1mb 46f
6:20pm 30 38 mph 1008.8mb 47f
6:10pm 24 37 mph 1008.8mb 47f
6:00pm 24 39 mph 1008.8mb 47f
5:40pm 23 39 mph 1009.1mb 47f
5:30pm 29 36 mph 1009.1mb 48f
5:20pm 25 37 mph 1009.1mb 48f
5:10pm 23 31 mph 1009.1mb 48f
5:00pm 23 37 mph 1009.5mb 49f
4:40pm 23 32 mph 1009.5mb 49f
4:30pm 23 36 mph 1009.8mb 50f
4:20pm 25 31 mph 1011.2mb 50f
4:10pm 23 34 mph 1009.8mb 51f
4:00pm 28 32 mph 1009.8mb 51f
3:40pm 28 36 mph 1009.8mb 51f
3:30pm 23 36 mph 1009.8mb 51f
3:27pm 23 30 mph 1009.8mb 51f
3:20pm 24 32 mph 1009.8mb 51f
3:10pm 28 32 mph 1009.8mb 52f
3:00pm 29 34 mph 1010.2mb 52f
2:40pm 25 33 mph 1010.2mb 52f
2:30pm 29 36 mph 1010.2mb 52f
2:25pm 25 31 mph 1009.8mb 52f
2:20pm 25 33 mph 1010.2mb 52f
2:10pm 22 31 mph 1010.5mb 51f
2:00pm 22 36 mph 1010.5mb 51f
1:40pm 24 32 mph 1010.8mb 51f
1:30pm 24 31 mph 1010.5mb 51f
1:24pm 24 31 mph 1010.5mb 51f
1:20pm 22 31 mph 1010.8mb 51f
1:10pm 26 34 mph 1011.2mb 51f
1:00pm 24 34 mph 1011.2mb 50f
12:40pm 26 32 mph 1011.5mb 50f
12:30pm 22 31 mph 1011.5mb 50f
12:24pm 22 31 mph 1011.5mb 49f
12:20pm 22 32 mph 1011.9mb 49f
12:10pm 28 32 mph 1011.9mb 49f
12:00pm 24 32 mph 1011.9mb 49f
11:40am 21 33 mph 1012.5mb 48f
11:30am 24 32 mph 1012.5mb 48f
11:21am 18
mph
1012.5mb 47f
11:20am 18 25 mph 1012.9mb 47f
11:10am 21 31 mph 1013.2mb 47f
11:00am 20 31 mph 1013.2mb 46f
10:40am 21 29 mph 1013.5mb 46f
10:30am 22 29 mph 1013.5mb 45f
10:21am 20
mph
1013.9mb 44f
10:20am 20 26 mph 1013.9mb 44f
10:10am 22 26 mph 1014.2mb 44f
10:00am 18 26 mph 1014.2mb 43f
9:40am 17 25 mph 1014.6mb 42f
9:30am 17 24 mph 1014.6mb 41f
9:21am 16 23 mph 1014.9mb 41f
9:20am 16 22 mph 1014.9mb 41f
9:10am 17 23 mph 1014.9mb 40f
9:00am 20 23 mph 1015.2mb 40f